User: anonymous   Login
Location: Vancouver
(49.2500°N, 123.1330°W)
Time: 18:47:25
(UTC-07:00)
Language:

Oscar 11 - Orbit

View from above orbital plane
View from above orbital plane
View from above satellite
View from above satellite

Ground track
Ground track

The orbit data is extracted from the following two-line orbital elements,

1 14781U 84021B   17291.58113435 +.00000127 +00000-0 +21939-4 0  9994
2 14781 097.6835 332.6569 0009293 147.4246 212.7543 14.82943761787636
Epoch (UTC): 18 October 2017 13:56:50
Eccentricity: 0.0009293
inclination: 97.6835°
perigee height: 613 km
apogee height: 626 km
right ascension of ascending node: 332.6569°
argument of perigee: 147.4246°
revolutions per day: 14.82943761
mean anomaly at epoch: 212.7543°
orbit number at epoch: 78763

The dashed part of the orbit path shows where the satellite is in the earth's shadow,  

DLR